Flag for Greenland Weather past 2 weeks in Ittoqqortoormiit, Greenland

Now
52 °F

Sunny.


Feels Like: 52 °F
Forecast: 31 / 42 °F
Wind: 1 mph from Northeast

Location: Scoresbysund

Current Time: Jul 28, 2014 at 11:19:19 AM

Latest Report: Jul 28, 2014 at 10:00 AM


Visibility: 25 mi

Pressure: 29.73 "Hg

Humidity: 60%

Dew point: 38 °F

Location of IttoqqortoormiitLocation

Historic Weather in Ittoqqortoormiit — Graph

°F

Ittoqqortoormiit temperature yesterday

Maximum temperature yesterday: 57 °F (at 8:00 PM)
Minimum temperature yesterday: 41 °F (at 6:00 AM)
Average temperature yesterday: 48 °F

Past Weeks' High & Low Weather Summary

 TemperatureHumidityPressure
High57 °F (Jul 27, 8:00 PM)100% (Jul 15, 6:00 AM)30.03 "Hg (Jul 15, 6:00 AM)
Low35 °F (Jul 17, 11:00 PM)40% (Jul 20, 7:00 PM)29.59 "Hg (Jul 16, 4:00 AM)
Average45 °F76%29.86 "Hg
* Reported Jul 13 10:00 AM — Jul 28 10:00 AM, Ittoqqortoormiit, Weather by CustomWeather, © 2014

Note: Actual official high and low records may vary slightly from our data, if they occured in-between our weather recording intervals... More about our weather records

Advertising

Ittoqqortoormiit weather history for previous 24 hours

 ConditionsComfort  
Time TempWeatherWind HumidityBarometerVisibility
10:00 AM
Jul 28
52 °FSunny.1 mph60%29.73 "Hg25 mi
9:00 AM47 °FSunny.1 mph67%29.74 "Hg25 mi
8:00 AM47 °FSunny.2 mph66%29.74 "Hg28 mi
7:00 AM47 °FSunny.1 mph68%29.75 "Hg28 mi
6:00 AM46 °FSunny.3 mph67%29.75 "Hg31 mi
5:00 AM44 °FSunny.1 mph75%29.77 "Hg31 mi
4:00 AM42 °FSunny.1 mph81%29.78 "Hg28 mi
3:00 AM43 °FSunny.2 mph77%29.79 "Hg28 mi
2:00 AM43 °FSunny.2 mph78%29.81 "Hg31 mi
1:00 AM44 °FSunny.1 mph77%29.82 "Hg31 mi
12:00 AM46 °FSunny.2 mph71%29.83 "Hg28 mi
11:00 PM
Jul 27
52 °FSunny.6 mph57%29.84 "Hg28 mi
10:00 PM56 °FSunny.3 mph52%29.84 "Hg31 mi
9:00 PM56 °FSunny.1 mph51%29.85 "Hg31 mi
8:00 PM57 °FSunny.1 mph47%29.86 "Hg31 mi
7:00 PM57 °FSunny.2 mph48%29.87 "Hg31 mi
6:00 PM56 °FSunny.3 mph52%29.88 "Hg25 mi
5:00 PM54 °FSunny.2 mph52%29.90 "Hg28 mi
4:00 PM51 °FSunny.3 mph61%29.91 "Hg28 mi
3:00 PM48 °FSunny.5 mph68%29.93 "Hg28 mi
2:00 PM47 °FSunny.2 mph72%29.95 "Hg22 mi
1:00 PM44 °FSunny.2 mph79%29.97 "Hg22 mi
12:00 PM44 °FSunny.3 mph77%29.98 "Hg25 mi
11:00 AM42 °FSunny.3 mph83%29.99 "Hg25 mi
Weather by CustomWeather, © 2014

See weather overviewHow to use our weather pages